カタログに戻る

STARLINK-35293

運用中通信VLEO
NORAD 66012·PAYLOAD·🇺🇸 United States

打ち上げ Oct 16, 2025 から Cape Canaveral Space Force Station

Loading…

次のパス (今後24時間)

TLE

最新Source: CelesTrak SupGP

元期: Sep 15, 2026, 02:40 UTC

1 66012C 25232H   26258.11159722  .00031107  00000+0  91896-3 0  2585
2 66012  53.1572 302.6127 0001310  97.7098  37.5101 15.34378364    18

AllMySatでSTARLINK-35293をリアルタイム追跡

Download on the App Store